Weather History for Livingston, MT

Change the Weather History Date:

Saturday, August 30, 2014

  Actual Average Record
Temperature  
Mean Temperature 63 °F 62 °F  
Max Temperature 71 °F 80 °F 96 °F (1954)
Min Temperature 54 °F 44 °F 31 °F (1993)
Degree Days  
Heating Degree Days 2 4  
Month to date heating degree days 53 62  
Since 1 June heating degree days 257 319  
Since 1 July heating degree days 62 112  
Cooling Degree Days 0 1  
Month to date cooling degree days 123 86  
Year to date cooling degree days 303 215  
Since 1 June cooling degree days 298 214  
Growing Degree Days 12 (Base 50)    
Moisture  
Dew Point 47 °F    
Average Humidity 57    
Maximum Humidity 83    
Minimum Humidity 31    
Precipitation  
Precipitation 0.38 in 0.03 in 0.85 in (1977)
Month to date precipitation 2.66 1.07  
Year to date precipitation 11.91 11.19  
Sea Level Pressure  
Sea Level Pressure 29.80 in    
Wind  
Wind Speed 12 mph (West)    
Max Wind Speed 31 mph    
Max Gust Speed 37 mph    
Visibility 9 miles    
Events Rain , Thunderstorm    
T = Trace of Precipitation, MM = Missing Value Source: NWS Daily Summary

Daily Weather History Graph

Daily Weather History Graph

Search for Another Location

Airport:

Trip Planner

Search our weather history database for the weather conditions in past years. The results will help you decide how hot, cold, wet, or windy it might be!

Date:

Astronomy

Aug. 30, 2014 Rise Set
Actual Time 6:40 AM MDT 8:03 PM MDT
Civil Twilight 6:09 AM MDT 8:34 PM MDT
Nautical Twilight 5:32 AM MDT 9:11 PM MDT
Astronomical Twilight 4:52 AM MDT 9:50 PM MDT
Moon 11:48 AM MDT (8/30) 10:22 PM MDT (8/30)
Length of Visible Light 14h 24m
Length of Day
13h 22m
Waxing Crescent, 23% of the Moon is Illuminated
Aug 30
Waxing Crescent
Sep 2
First Quarter
Sep 8
Full
Sep 15
Last Quarter
Sep 24
New

Hourly Weather History & Observations

Time (MDT) Temp. Dew Point Humidity Pressure Visibility Wind Dir Wind Speed Gust Speed Precip Events Conditions
12:53 AM 62.1 °F 48.0 °F 60% 29.78 in 10.0 mi SSW 9.2 mph - 0.00 in   Scattered Clouds
1:53 AM 68.0 °F 43.0 °F 40% 29.72 in 10.0 mi SSW 6.9 mph - N/A   Overcast
2:53 AM 71.1 °F 39.0 °F 31% 29.69 in 10.0 mi West 9.2 mph - N/A   Scattered Clouds
3:53 AM 66.0 °F 43.0 °F 43% 29.68 in 10.0 mi Variable 3.5 mph - N/A   Partly Cloudy
4:53 AM 66.9 °F 43.0 °F 42% 29.67 in 10.0 mi NW 8.1 mph - N/A   Mostly Cloudy
5:53 AM 63.0 °F 48.9 °F 60% 29.72 in 7.0 mi West 20.7 mph 26.5 mph 0.03 in Rain Light Rain
6:53 AM 60.1 °F 48.9 °F 67% 29.81 in 10.0 mi West 9.2 mph - 0.00 in Rain Light Rain
7:26 AM 55.9 °F 50.0 °F 80% 29.96 in 2.5 mi WSW 8.1 mph - 0.16 in Rain Heavy Rain
7:36 AM 55.9 °F 50.0 °F 80% 29.97 in 3.0 mi WSW 12.7 mph - 0.19 in Rain Rain
7:53 AM 55.9 °F 51.1 °F 84% 29.84 in 10.0 mi West 6.9 mph - 0.20 in   Overcast
8:53 AM 57.0 °F 51.1 °F 81% 29.78 in 10.0 mi West 10.4 mph - 0.01 in   Partly Cloudy
9:53 AM 62.1 °F 51.1 °F 67% 29.76 in 10.0 mi NW 12.7 mph - N/A   Clear
10:53 AM 66.0 °F 48.9 °F 54% 29.74 in 10.0 mi WSW 13.8 mph 21.9 mph N/A   Clear
11:53 AM 64.9 °F 48.9 °F 56% 29.76 in 10.0 mi WNW 8.1 mph - N/A   Partly Cloudy
12:53 PM 62.1 °F 48.9 °F 62% 29.78 in 10.0 mi WSW 11.5 mph - 0.00 in Rain Light Rain
1:53 PM 63.0 °F 48.9 °F 60% 29.75 in 10.0 mi West 15.0 mph - 0.01 in   Overcast
2:53 PM 64.0 °F 45.0 °F 50% 29.73 in 5.0 mi WSW 16.1 mph 31.1 mph N/A   Haze
3:15 PM 55.9 °F 46.0 °F 69% 29.88 in 10.0 mi NNW 21.9 mph 36.8 mph N/A   Overcast
3:25 PM 54.0 °F 48.0 °F 80% 29.89 in 10.0 mi North 12.7 mph 29.9 mph 0.00 in Rain Light Rain
3:53 PM 55.9 °F 48.0 °F 75% 29.76 in 8.0 mi Variable 4.6 mph - 0.00 in Rain Light Rain
4:53 PM 61.0 °F 48.0 °F 62% 29.75 in 10.0 mi WNW 10.4 mph - 0.00 in   Scattered Clouds
5:19 PM 59.0 °F 48.0 °F 67% 29.87 in 6.0 mi WSW 13.8 mph - 0.01 in Rain , Thunderstorm Light Rain
5:44 PM 57.9 °F 48.9 °F 72% 29.87 in 9.0 mi West 13.8 mph 25.3 mph 0.01 in Rain Light Rain
5:53 PM 57.9 °F 48.9 °F 72% 29.79 in 10.0 mi WNW 18.4 mph 26.5 mph 0.01 in   Overcast
6:21 PM 54.0 °F 48.0 °F 80% 29.92 in 2.5 mi NW 11.5 mph 21.9 mph 0.07 in Rain Heavy Rain
6:39 PM 55.0 °F 48.0 °F 77% 29.92 in 8.0 mi Calm Calm - 0.10 in Rain Light Rain
6:53 PM 55.0 °F 48.0 °F 77% 29.83 in 10.0 mi NNW 3.5 mph - 0.10 in   Overcast
7:53 PM 54.0 °F 48.9 °F 83% 29.84 in 10.0 mi West 6.9 mph - 0.00 in   Overcast
9:53 PM 55.9 °F 46.0 °F 69% 29.79 in 10.0 mi West 13.8 mph - N/A   Clear
10:53 PM 57.9 °F 44.1 °F 60% 29.77 in 10.0 mi WSW 19.6 mph 29.9 mph N/A   Clear
11:53 PM 57.0 °F 44.1 °F 62% 29.78 in 10.0 mi SW 24.2 mph 28.8 mph N/A   Clear